Change the Weather History Date:

Sunday, February 3, 2013

  Actual Average Record
Temperature  
Mean Temperature 16 °F -  
Max Temperature 19 °F 31 °F 51 °F (2003)
Min Temperature 12 °F 19 °F -10 °F (1951)
Degree Days  
Heating Degree Days 50    
Moisture  
Dew Point 11 °F    
Average Humidity 81    
Maximum Humidity 92    
Minimum Humidity 73    
Precipitation  
Precipitation 0.00 in - - ()
Sea Level Pressure  
Sea Level Pressure 29.95 in    
Wind  
Wind Speed 7 mph (West)    
Max Wind Speed 20 mph    
Max Gust Speed 25 mph    
Visibility 7 miles    
Events Snow    
Averages and records for this station are not official NWS values.
T = Trace of Precipitation, MM = Missing Value Source: NWS Daily Summary

Daily Weather History Graph

Daily Weather History Graph

Search for Another Location

Airport or City:

Trip Planner

Search our weather history database for the weather conditions in past years. The results will help you decide how hot, cold, wet, or windy it might be!

Date:

Astronomy

Feb. 03, 2013 Rise Set
Actual Time 7:43 AM EST 5:54 PM EST
Civil Twilight 7:14 AM EST 6:23 PM EST
Nautical Twilight 6:41 AM EST 6:56 PM EST
Astronomical Twilight 6:09 AM EST 7:28 PM EST
Moon 1:09 AM EST (2/3) 11:30 AM EST (2/3)
Length of Visible Light 11h 09m
Length of Day
10h 11m
Waning Gibbous, 49% of the Moon is Illuminated
Feb 3
Waning Gibbous
Feb 10
New
Feb 17
First Quarter
Feb 25
Full
Mar 4
Last Quarter

Hourly Weather History & Observations

Time (EST) Temp. Windchill Dew Point Humidity Pressure Visibility Wind Dir Wind Speed Gust Speed Precip Events Conditions
12:23 AM 17.6 °F 9.3 °F 12.2 °F 79% 29.98 in 10.0 mi North 5.8 mph - N/A   Overcast
12:53 AM 17.1 °F 10.0 °F 12.9 °F 84% 30.00 in 10.0 mi NNW 4.6 mph - N/A   Overcast
1:53 AM 16.0 °F 10.4 °F 12.0 °F 84% 29.99 in 10.0 mi NW 3.5 mph - N/A   Overcast
2:53 AM 16.0 °F 7.4 °F 10.9 °F 81% 29.97 in 10.0 mi NNW 5.8 mph - N/A   Overcast
3:53 AM 15.1 °F 7.7 °F 10.9 °F 84% 29.95 in 10.0 mi NNW 4.6 mph - N/A   Overcast
4:53 AM 12.0 °F 5.9 °F 9.0 °F 88% 29.94 in 9.0 mi WSW 3.5 mph - N/A   Overcast
5:53 AM 12.0 °F - 9.0 °F 88% 29.94 in 10.0 mi Calm Calm - 0.00 in   Overcast
6:53 AM 12.0 °F - 10.0 °F 92% 29.93 in 10.0 mi Calm Calm - N/A   Overcast
7:53 AM 12.9 °F 5.2 °F 9.0 °F 84% 29.94 in 10.0 mi NNW 4.6 mph - N/A   Overcast
8:53 AM 12.9 °F - 9.0 °F 84% 29.94 in 8.0 mi Calm Calm - 0.00 in   Overcast
9:06 AM 12.2 °F - 8.6 °F 85% 29.91 in 2.5 mi Calm Calm - 0.00 in Snow Light Snow
9:14 AM 12.2 °F 6.1 °F 8.6 °F 85% 29.91 in 4.0 mi WNW 3.5 mph - 0.00 in Snow Light Snow
9:53 AM 14.0 °F 5.1 °F 9.0 °F 80% 29.95 in 4.0 mi West 5.8 mph - 0.00 in Snow Light Snow
10:00 AM 14.0 °F 6.5 °F 10.4 °F 86% 29.92 in 1.8 mi West 4.6 mph - 0.00 in Snow Light Snow
10:08 AM 14.0 °F 5.1 °F 10.4 °F 86% 29.92 in 1.8 mi WNW 5.8 mph - 0.00 in Snow Light Snow
10:53 AM 15.1 °F 9.4 °F 10.9 °F 84% 29.95 in 2.0 mi West 3.5 mph - 0.00 in Snow Light Snow
11:15 AM 15.8 °F 7.2 °F 12.2 °F 86% 29.92 in 4.0 mi West 5.8 mph - 0.00 in Snow Light Snow
11:22 AM 15.8 °F 8.6 °F 12.2 °F 86% 29.92 in 4.0 mi West 4.6 mph - 0.00 in Snow Light Snow
11:42 AM 15.8 °F 7.2 °F 12.2 °F 86% 29.91 in 2.5 mi West 5.8 mph - 0.00 in Snow Light Snow
11:53 AM 16.0 °F 6.3 °F 12.0 °F 84% 29.94 in 2.5 mi West 6.9 mph - 0.00 in Snow Light Snow
12:02 PM 17.6 °F 7.3 °F 12.2 °F 79% 29.91 in 2.0 mi West 8.1 mph - 0.00 in Snow Light Snow
12:22 PM 17.6 °F 9.3 °F 12.2 °F 79% 29.90 in 4.0 mi West 5.8 mph - 0.00 in Snow Light Snow
12:53 PM 18.0 °F 6.1 °F 12.9 °F 81% 29.93 in 6.0 mi West 10.4 mph - 0.00 in   Haze
1:01 PM 17.6 °F 3.2 °F 12.2 °F 79% 29.90 in 5.0 mi WSW 15.0 mph - N/A   Haze
1:09 PM 17.6 °F 3.2 °F 12.2 °F 79% 29.90 in 6.0 mi WSW 15.0 mph - N/A   Haze
1:32 PM 17.6 °F 4.3 °F 12.2 °F 79% 29.90 in 7.0 mi West 12.7 mph - N/A   Overcast
1:48 PM 17.6 °F 4.3 °F 12.2 °F 79% 29.90 in 9.0 mi West 12.7 mph - N/A   Overcast
1:53 PM 19.0 °F 6.1 °F 12.9 °F 77% 29.93 in 10.0 mi West 12.7 mph - N/A   Overcast
2:44 PM 17.6 °F 2.7 °F 10.4 °F 73% 29.90 in 10.0 mi West 16.1 mph - N/A   Overcast
2:53 PM 17.1 °F 2.0 °F 10.9 °F 77% 29.94 in 10.0 mi WSW 16.1 mph - N/A   Overcast
3:11 PM 17.6 °F 1.7 °F 10.4 °F 73% 29.91 in 10.0 mi WSW 18.4 mph - N/A   Overcast
3:53 PM 18.0 °F 2.2 °F 10.9 °F 74% 29.97 in 10.0 mi West 18.4 mph 23.0 mph N/A   Overcast
4:53 PM 18.0 °F 2.6 °F 10.9 °F 74% 29.98 in 10.0 mi WSW 17.3 mph - N/A   Overcast
5:53 PM 19.0 °F 3.2 °F 12.0 °F 74% 30.00 in 10.0 mi West 19.6 mph 25.3 mph N/A   Overcast
6:53 PM 17.1 °F 2.5 °F 10.9 °F 77% 30.01 in 10.0 mi WSW 15.0 mph - N/A   Clear
7:53 PM 17.1 °F 2.5 °F 10.9 °F 77% 30.03 in 10.0 mi WSW 15.0 mph - N/A   Clear
8:53 PM 18.0 °F 3.1 °F 12.0 °F 78% 30.04 in 10.0 mi WSW 16.1 mph - N/A   Overcast
9:53 PM 18.0 °F 3.6 °F 12.9 °F 81% 30.06 in 10.0 mi West 15.0 mph - N/A   Overcast
10:53 PM 17.1 °F 5.0 °F 10.9 °F 77% 30.06 in 10.0 mi WSW 10.4 mph - N/A   Overcast
11:53 PM 17.1 °F 7.6 °F 12.0 °F 81% 30.06 in 10.0 mi WSW 6.9 mph - N/A   Overcast